User: anonymous   Login
Location: Copeville
(33.0796°N, 96.4155°W)
Time: 15:37:25
(UTC+00:00)
Language:

Cosmos 1500 Rocket - Orbit

View from above orbital plane
View from above orbital plane
View from above satellite
View from above satellite

Ground track
Ground track

The orbit data is extracted from the following two-line orbital elements,

1 14373U 83099B   22145.68762446  .00000499  00000-0  56884-4 0  9991
2 14373  82.5404 358.7974 0021084  37.8810 322.3884 14.83961749 67227
Epoch (UTC): 25 May 2022 16:30:10
Eccentricity: 0.0021084
inclination: 82.5404°
perigee height: 602 km
apogee height: 631 km
right ascension of ascending node: 358.7974°
argument of perigee: 37.8810°
revolutions per day: 14.83961749
mean anomaly at epoch: 322.3884°
orbit number at epoch: 6722

The dashed part of the orbit path shows where the satellite is in the earth's shadow,  

DLR